| time (UTC) | temp F | wind direction | speed MPH | gust MPH | rain 1hr in | rain 24hr in | rain mn in | humidity % | barometer mb |
| 20260505041531 | 63 | 212 | 3.0 | 8.0 | 0.00 | 0.02 | 0.00 | 58 | 1015.2 |
| 20260505040810 | 63 | 192 | 2.0 | 8.0 | 0.00 | 0.02 | 0.00 | 59 | 1015.1 |
| 20260505040309 | 63 | 217 | 2.0 | 5.0 | 0.00 | 0.02 | 0.00 | 59 | 1015.1 |
| 20260505035810 | 63 | 257 | 2.0 | 5.0 | 0.00 | 0.02 | 0.02 | 59 | 1015.1 |
| 20260505035745 | 63 | 258 | 2.0 | 4.0 | 0.00 | 0.02 | 0.02 | 59 | 1015.1 |
| 20260505034800 | 62 | 268 | 2.0 | 4.0 | 0.00 | 0.02 | 0.02 | 59 | 1015.1 |
| 20260505034257 | 62 | 240 | 2.0 | 3.0 | 0.00 | 0.02 | 0.02 | 60 | 1015.1 |
| 20260505034019 | 63 | 198 | 2.0 | 4.0 | 0.00 | 0.02 | 0.02 | 59 | 1015.2 |
| 20260505033228 | 62 | 184 | 2.0 | 4.0 | 0.00 | 0.02 | 0.02 | 59 | 1015.2 |
| 20260505032727 | 62 | 225 | 2.0 | 4.0 | 0.00 | 0.02 | 0.02 | 60 | 1015.2 |
| 20260505032227 | 63 | 225 | 2.0 | 4.0 | 0.00 | 0.02 | 0.02 | 59 | 1015.3 |
| 20260505031728 | 63 | 228 | 2.0 | 3.0 | 0.00 | 0.02 | 0.02 | 59 | 1015.3 |
| 20260505031444 | 63 | 228 | 2.0 | 5.0 | 0.00 | 0.02 | 0.02 | 59 | 1015.3 |
| 20260505030722 | 63 | 228 | 2.0 | 5.0 | 0.00 | 0.02 | 0.02 | 59 | 1015.4 |
| 20260505030217 | 63 | 224 | 2.0 | 3.0 | 0.00 | 0.02 | 0.02 | 59 | 1015.4 |
| 20260505025717 | 63 | 224 | 2.0 | 3.0 | 0.00 | 0.02 | 0.02 | 59 | 1015.4 |
| 20260505025217 | 63 | 224 | 2.0 | 3.0 | 0.00 | 0.02 | 0.02 | 59 | 1015.4 |
| 20260505024716 | 63 | 224 | 2.0 | 3.0 | 0.00 | 0.02 | 0.02 | 59 | 1015.4 |
| 20260505024207 | 63 | 224 | 2.0 | 3.0 | 0.00 | 0.02 | 0.02 | 59 | 1015.4 |
| 20260505023649 | 64 | 224 | 2.0 | 3.0 | 0.00 | 0.02 | 0.02 | 58 | 1015.4 |
| 20260505023142 | 64 | 223 | 2.0 | 3.0 | 0.00 | 0.02 | 0.02 | 58 | 1015.4 |
| 20260505022641 | 64 | 223 | 2.0 | 3.0 | 0.00 | 0.02 | 0.02 | 58 | 1015.4 |
| 20260505022137 | 64 | 223 | 2.0 | 2.0 | 0.00 | 0.02 | 0.02 | 57 | 1015.4 |
| 20260505021635 | 64 | 223 | 2.0 | 3.0 | 0.00 | 0.02 | 0.02 | 57 | 1015.4 |
| 20260505021132 | 65 | 223 | 2.0 | 3.0 | 0.00 | 0.02 | 0.02 | 57 | 1015.3 |
| 20260505020629 | 65 | 219 | 0.0 | 3.0 | 0.00 | 0.02 | 0.02 | 56 | 1015.3 |
| 20260505020128 | 65 | 218 | 0.0 | 2.0 | 0.00 | 0.02 | 0.02 | 56 | 1015.3 |
| 20260505015858 | 65 | 207 | 0.0 | 2.0 | 0.00 | 0.02 | 0.02 | 56 | 1015.2 |
| 20260505015341 | 66 | 206 | 0.0 | 1.0 | 0.00 | 0.02 | 0.02 | 55 | 1015.2 |
| 20260505014621 | 66 | 207 | 0.0 | 1.0 | 0.00 | 0.02 | 0.02 | 54 | 1015.2 |
| 20260505014120 | 66 | 206 | 0.0 | 2.0 | 0.00 | 0.02 | 0.02 | 54 | 1015.1 |
| 20260505013838 | 66 | 206 | 0.0 | 2.0 | 0.00 | 0.02 | 0.02 | 54 | 1015.1 |
| 20260505013117 | 67 | 206 | 0.0 | 0.0 | 0.00 | 0.02 | 0.02 | 53 | 1015.1 |
| 20260505013057 | 67 | 207 | 0.0 | 0.0 | 0.00 | 0.02 | 0.02 | 53 | 1015.0 |
| 20260505012114 | 67 | 206 | 0.0 | 2.0 | 0.00 | 0.02 | 0.02 | 52 | 1015.0 |
| 20260505011609 | 67 | 207 | 1.0 | 3.0 | 0.00 | 0.02 | 0.02 | 52 | 1015.0 |
| 20260505011336 | 68 | 206 | 1.0 | 3.0 | 0.00 | 0.02 | 0.02 | 51 | 1014.9 |
| 20260505010543 | 68 | 206 | 0.0 | 2.0 | 0.00 | 0.02 | 0.02 | 51 | 1014.9 |
| 20260505010027 | 68 | 206 | 0.0 | 0.0 | 0.00 | 0.02 | 0.02 | 50 | 1014.9 |
| 20260505005515 | 69 | 206 | 1.0 | 1.0 | 0.00 | 0.02 | 0.02 | 49 | 1014.8 |
| 20260505004935 | 69 | 206 | 1.0 | 3.0 | 0.00 | 0.02 | 0.02 | 49 | 1014.8 |
| 20260505004413 | 69 | 206 | 2.0 | 4.0 | 0.00 | 0.02 | 0.02 | 48 | 1014.8 |
| 20260505004138 | 69 | 208 | 2.0 | 5.0 | 0.00 | 0.02 | 0.02 | 48 | 1014.7 |
| 20260505003402 | 69 | 206 | 3.0 | 5.0 | 0.00 | 0.02 | 0.02 | 47 | 1014.7 |
| 20260505002902 | 69 | 256 | 3.0 | 6.0 | 0.00 | 0.02 | 0.02 | 47 | 1014.7 |
| 20260505002402 | 70 | 267 | 3.0 | 6.0 | 0.00 | 0.02 | 0.02 | 47 | 1014.6 |
| 20260505001902 | 70 | 270 | 3.0 | 6.0 | 0.00 | 0.02 | 0.02 | 46 | 1014.6 |
| 20260505001400 | 71 | 260 | 3.0 | 6.0 | 0.00 | 0.02 | 0.02 | 45 | 1014.6 |
| 20260505000856 | 71 | 270 | 3.0 | 6.0 | 0.00 | 0.02 | 0.02 | 46 | 1014.6 |
| 20260505000355 | 72 | 203 | 2.0 | 6.0 | 0.00 | 0.02 | 0.02 | 45 | 1014.6 |
| 20260504235854 | 73 | 244 | 2.0 | 5.0 | 0.00 | 0.02 | 0.02 | 45 | 1014.6 |
| 20260504235355 | 73 | 185 | 3.0 | 5.0 | 0.00 | 0.02 | 0.02 | 44 | 1014.5 |
| 20260504235115 | 74 | 193 | 3.0 | 5.0 | 0.00 | 0.02 | 0.02 | 44 | 1014.5 |
| 20260504234843 | 75 | 239 | 3.0 | 7.0 | 0.00 | 0.02 | 0.02 | 43 | 1014.5 |
| 20260504233855 | 75 | 261 | 3.0 | 7.0 | 0.00 | 0.02 | 0.02 | 42 | 1014.5 |
| 20260504233355 | 76 | 266 | 3.0 | 6.0 | 0.00 | 0.02 | 0.02 | 42 | 1014.5 |
| 20260504232852 | 76 | 183 | 3.0 | 6.0 | 0.00 | 0.02 | 0.02 | 41 | 1014.5 |
| 20260504232352 | 76 | 229 | 3.0 | 6.0 | 0.00 | 0.02 | 0.02 | 42 | 1014.5 |
| 20260504232110 | 76 | 293 | 3.0 | 7.0 | 0.00 | 0.02 | 0.02 | 44 | 1014.5 |
| 20260504231353 | 76 | 225 | 3.0 | 7.0 | 0.00 | 0.02 | 0.02 | 41 | 1014.5 |
| 20260504231105 | 76 | 277 | 3.0 | 6.0 | 0.00 | 0.02 | 0.02 | 43 | 1014.6 |
| 20260504230949 | 76 | 191 | 3.0 | 7.0 | 0.00 | 0.02 | 0.02 | 41 | 1014.6 |
| 20260504225852 | 76 | 205 | 3.0 | 6.0 | 0.00 | 0.02 | 0.02 | 42 | 1014.6 |
| 20260504225352 | 76 | 205 | 3.0 | 5.0 | 0.00 | 0.02 | 0.02 | 43 | 1014.7 |
| 20260504224849 | 76 | 181 | 4.0 | 7.0 | 0.00 | 0.02 | 0.02 | 43 | 1014.7 |
| 20260504224350 | 76 | 282 | 4.0 | 8.0 | 0.00 | 0.02 | 0.02 | 41 | 1014.7 |
| 20260504224112 | 77 | 252 | 4.0 | 8.0 | 0.00 | 0.02 | 0.02 | 41 | 1014.7 |
| 20260504223352 | 77 | 239 | 4.0 | 10.0 | 0.00 | 0.02 | 0.02 | 42 | 1014.7 |
| 20260504222853 | 76 | 277 | 4.0 | 10.0 | 0.00 | 0.02 | 0.02 | 41 | 1014.7 |
| 20260504222352 | 77 | 228 | 4.0 | 9.0 | 0.00 | 0.02 | 0.02 | 42 | 1014.7 |
| 20260504221851 | 76 | 249 | 4.0 | 9.0 | 0.00 | 0.02 | 0.02 | 42 | 1014.7 |
| 20260504221604 | 77 | 201 | 4.0 | 7.0 | 0.00 | 0.02 | 0.02 | 41 | 1014.7 |
| 20260504220845 | 77 | 222 | 4.0 | 7.0 | 0.00 | 0.02 | 0.02 | 43 | 1014.7 |
| 20260504220606 | 76 | 198 | 4.0 | 6.0 | 0.00 | 0.02 | 0.02 | 43 | 1014.7 |
| 20260504215845 | 76 | 196 | 3.0 | 9.0 | 0.00 | 0.02 | 0.02 | 42 | 1014.7 |
| 20260504215340 | 76 | 194 | 3.0 | 9.0 | 0.00 | 0.02 | 0.02 | 42 | 1014.8 |
| 20260504214839 | 76 | 238 | 2.0 | 8.0 | 0.00 | 0.02 | 0.02 | 42 | 1014.8 |
| 20260504214340 | 76 | 264 | 2.0 | 8.0 | 0.00 | 0.02 | 0.02 | 44 | 1014.8 |
| 20260504213837 | 77 | 220 | 3.0 | 4.0 | 0.00 | 0.02 | 0.02 | 43 | 1014.9 |
| 20260504213335 | 77 | 183 | 3.0 | 6.0 | 0.00 | 0.02 | 0.02 | 42 | 1014.9 |
| 20260504212838 | 77 | 179 | 4.0 | 6.0 | 0.00 | 0.02 | 0.02 | 41 | 1014.9 |
| 20260504212329 | 77 | 189 | 4.0 | 6.0 | 0.00 | 0.02 | 0.02 | 43 | 1015.0 |
| 20260504211830 | 77 | 181 | 4.0 | 9.0 | 0.00 | 0.02 | 0.02 | 41 | 1015.0 |
| 20260504211329 | 76 | 229 | 4.0 | 9.0 | 0.00 | 0.02 | 0.02 | 43 | 1015.0 |
| 20260504210830 | 76 | 213 | 4.0 | 8.0 | 0.00 | 0.02 | 0.02 | 44 | 1015.1 |
| 20260504210329 | 76 | 203 | 4.0 | 9.0 | 0.00 | 0.02 | 0.02 | 44 | 1015.1 |
| 20260504205829 | 76 | 203 | 4.0 | 9.0 | 0.00 | 0.02 | 0.02 | 43 | 1015.1 |
| 20260504205329 | 76 | 230 | 4.0 | 9.0 | 0.00 | 0.02 | 0.02 | 43 | 1015.4 |
| 20260504204830 | 76 | 192 | 3.0 | 9.0 | 0.00 | 0.02 | 0.02 | 43 | 1015.4 |
| 20260504204549 | 76 | 264 | 3.0 | 9.0 | 0.00 | 0.02 | 0.02 | 43 | 1015.4 |
| 20260504203829 | 76 | 183 | 3.0 | 6.0 | 0.00 | 0.02 | 0.02 | 45 | 1015.5 |
| 20260504203330 | 76 | 181 | 3.0 | 6.0 | 0.00 | 0.02 | 0.02 | 46 | 1015.5 |
| 20260504202829 | 75 | 211 | 4.0 | 8.0 | 0.00 | 0.02 | 0.02 | 45 | 1015.5 |
| 20260504202327 | 75 | 230 | 4.0 | 8.0 | 0.00 | 0.02 | 0.02 | 47 | 1015.7 |
| 20260504201827 | 75 | 271 | 3.0 | 11.0 | 0.00 | 0.02 | 0.02 | 48 | 1015.7 |
| 20260504201327 | 75 | 133 | 3.0 | 11.0 | 0.00 | 0.02 | 0.02 | 45 | 1015.7 |
| 20260504200828 | 74 | 288 | 4.0 | 9.0 | 0.00 | 0.02 | 0.02 | 47 | 1015.8 |
| 20260504200327 | 74 | 230 | 4.0 | 9.0 | 0.00 | 0.02 | 0.02 | 49 | 1015.8 |
| 20260504195827 | 74 | 276 | 4.0 | 8.0 | 0.00 | 0.02 | 0.02 | 48 | 1015.8 |
| 20260504195327 | 74 | 259 | 4.0 | 9.0 | 0.00 | 0.02 | 0.02 | 48 | 1016.3 |
| 20260504194827 | 74 | 170 | 3.0 | 9.0 | 0.00 | 0.02 | 0.02 | 47 | 1016.3 |
| 20260504194327 | 74 | 191 | 3.0 | 8.0 | 0.00 | 0.02 | 0.02 | 46 | 1016.3 |
| 20260504193827 | 74 | 218 | 3.0 | 7.0 | 0.00 | 0.02 | 0.02 | 49 | 1016.6 |
| 20260504193327 | 74 | 226 | 3.0 | 6.0 | 0.00 | 0.02 | 0.02 | 50 | 1016.6 |
| 20260504192827 | 74 | 256 | 3.0 | 7.0 | 0.00 | 0.02 | 0.02 | 49 | 1016.6 |
| 20260504192547 | 74 | 198 | 3.0 | 11.0 | 0.00 | 0.02 | 0.02 | 48 | 1016.9 |
| 20260504191827 | 73 | 271 | 4.0 | 11.0 | 0.00 | 0.02 | 0.02 | 49 | 1016.9 |
| 20260504191326 | 73 | 177 | 4.0 | 8.0 | 0.00 | 0.02 | 0.02 | 49 | 1016.9 |
| 20260504191048 | 72 | 219 | 4.0 | 10.0 | 0.00 | 0.02 | 0.02 | 49 | 1017.1 |
| 20260504190314 | 72 | 195 | 4.0 | 10.0 | 0.00 | 0.02 | 0.02 | 50 | 1017.1 |
| 20260504185815 | 72 | 259 | 3.0 | 8.0 | 0.00 | 0.02 | 0.02 | 50 | 1017.1 |
| 20260504185314 | 72 | 195 | 3.0 | 6.0 | 0.00 | 0.02 | 0.02 | 52 | 1017.2 |
| 20260504184814 | 71 | 203 | 3.0 | 6.0 | 0.00 | 0.02 | 0.02 | 49 | 1017.2 |
| 20260504184314 | 71 | 262 | 3.0 | 7.0 | 0.00 | 0.02 | 0.02 | 50 | 1017.2 |
| 20260504183811 | 71 | 236 | 4.0 | 7.0 | 0.00 | 0.02 | 0.02 | 52 | 1017.4 |
| 20260504183311 | 70 | 255 | 4.0 | 7.0 | 0.00 | 0.02 | 0.02 | 53 | 1017.4 |
| 20260504182813 | 70 | 203 | 3.0 | 8.0 | 0.00 | 0.02 | 0.02 | 52 | 1017.4 |
| 20260504182313 | 70 | 179 | 3.0 | 8.0 | 0.00 | 0.02 | 0.02 | 51 | 1017.6 |
| 20260504182016 | 69 | 270 | 4.0 | 10.0 | 0.00 | 0.02 | 0.02 | 51 | 1017.6 |
| 20260504181904 | 69 | 221 | 4.0 | 10.0 | 0.00 | 0.02 | 0.02 | 51 | 1017.6 |
| 20260504180809 | 69 | 169 | 4.0 | 9.0 | 0.00 | 0.02 | 0.02 | 50 | 1017.8 |
| 20260504180309 | 69 | 184 | 4.0 | 9.0 | 0.00 | 0.02 | 0.02 | 51 | 1017.8 |
| 20260504175809 | 69 | 186 | 2.0 | 8.0 | 0.00 | 0.02 | 0.02 | 52 | 1017.8 |
| 20260504175309 | 68 | 209 | 2.0 | 8.0 | 0.00 | 0.02 | 0.02 | 53 | 1017.9 |
| 20260504174809 | 68 | 251 | 3.0 | 6.0 | 0.00 | 0.02 | 0.02 | 53 | 1017.9 |
| 20260504174310 | 67 | 116 | 3.0 | 6.0 | 0.00 | 0.02 | 0.02 | 52 | 1017.9 |
| 20260504174031 | 67 | 194 | 3.0 | 6.0 | 0.00 | 0.02 | 0.02 | 54 | 1018.0 |
| 20260504173307 | 67 | 277 | 3.0 | 7.0 | 0.00 | 0.02 | 0.02 | 54 | 1018.0 |
| 20260504172805 | 67 | 267 | 3.0 | 8.0 | 0.00 | 0.02 | 0.02 | 55 | 1018.0 |
| 20260504172533 | 66 | 195 | 3.0 | 9.0 | 0.00 | 0.02 | 0.02 | 56 | 1018.2 |
| 20260504171804 | 66 | 184 | 3.0 | 9.0 | 0.00 | 0.02 | 0.02 | 53 | 1018.2 |
| 20260504171307 | 66 | 141 | 3.0 | 6.0 | 0.00 | 0.02 | 0.02 | 53 | 1018.2 |
| 20260504170802 | 65 | 181 | 3.0 | 6.0 | 0.00 | 0.02 | 0.02 | 56 | 1018.7 |
| 20260504170303 | 65 | 172 | 3.0 | 6.0 | 0.00 | 0.02 | 0.02 | 56 | 1018.7 |
| 20260504160242 | 58 | 273 | 2.0 | 5.0 | 0.00 | 0.02 | 0.02 | 72 | 1019.8 |
| 20260504150736 | 51 | 2 | 2.0 | 4.0 | 0.02 | 0.02 | 0.02 | 91 | 1020.3 |
| 20260504150230 | 51 | 354 | 2.0 | 4.0 | 0.02 | 0.02 | 0.02 | 89 | 1020.3 |
| 20260504141139 | 51 | 13 | 1.0 | 3.0 | 0.00 | 0.00 | 0.00 | 80 | 1021.5 |
| 20260504140635 | 51 | 13 | 1.0 | 3.0 | 0.00 | 0.00 | 0.00 | 81 | 1021.5 |
| 20260504140134 | 50 | 14 | 1.0 | 3.0 | 0.00 | 0.00 | 0.00 | 80 | 1021.5 |
| 20260504130516 | 48 | 13 | 0.0 | 2.0 | 0.00 | 0.00 | 0.00 | 83 | 1020.6 |
| 20260504110231 | 41 | 1 | 2.0 | 3.0 | 0.00 | 0.00 | 0.00 | 93 | 1019.2 |
| 20260504100607 | 42 | 13 | 0.0 | 2.0 | 0.00 | 0.00 | 0.00 | 89 | 1019.5 |
| 20260504081831 | 43 | 2 | 1.0 | 4.0 | 0.00 | 0.00 | 0.00 | 86 | 1019.5 |
| 20260504081319 | 43 | 3 | 1.0 | 4.0 | 0.00 | 0.00 | 0.00 | 86 | 1019.5 |
| 20260504080818 | 43 | 3 | 1.0 | 3.0 | 0.00 | 0.00 | 0.00 | 86 | 1019.3 |
| 20260504080313 | 43 | 3 | 1.0 | 2.0 | 0.00 | 0.00 | 0.00 | 85 | 1019.3 |
| 20260504070144 | 45 | 5 | 2.0 | 4.0 | 0.00 | 0.00 | 0.00 | 81 | 1019.3 |
| 20260504050541 | 48 | 358 | 2.0 | 4.0 | 0.00 | 0.00 | 0.00 | 73 | 1019.6 |
| 20260504050528 | 48 | 6 | 2.0 | 4.0 | 0.00 | 0.00 | 0.00 | 73 | 1019.6 |